Lemur-2 Marhisyam

operational
NORAD ID: 60536 Int'l Des: 2024-149 Owner: SPIRE Country: US Constellation: spire
LEOCIRCULARRETROGRADESSO

Lemur-2 Marhisyamについて

説明を読み込み中...

リアルタイム位置

3D地球を読み込み中...

次回通過

高度履歴

Altitude vs Time

uPlot chart will show altitude changes over time

軌道要素

1 60536U 24149BW 26063.16999149 .00019057 00000-0 12125-2 0 9990
2 60536 97.6930 145.6832 0003239 120.6828 239.4720 15.08833954 84633
Epoch: Mar 4, 2026 • Age: 16 hours

現在のステータス

高度 561.0 km
速度 7.58 km/s
衛星直下点 -52.35°S, 90.02°W
打ち上げ日 Aug 16, 2024
運用期間 1.5 years
タイプ other

技術仕様

分類 Payload
質量 7.60 kg
乾燥質量 7.60 kg
総質量 7.60 kg
長さ 0.30 m
直径 0.10 m
スパン 1.00 m
形状 Box+ 2 pan
製造者 SPIREG
バスタイプ Cubesat 3U
フェーズステータス In Orbit
所有者/国 SPIRE/US

大規模コンステレーション

Loading constellations...